Time,TemperatureF,DewpointF,PressureIn,WindDirection,WindDirectionDegrees,WindSpeedMPH,WindSpeedGustMPH,Humidity,HourlyPrecipIn,Conditions,Clouds,dailyrainin,SoftwareType,DateUTC
2013-03-07 00:01:00,28.0,28.0,30.24,NNE,20,0.0,3.0,98,66.20,,,-99.99,,2013-03-07 06:01:00,
2013-03-07 00:11:00,28.0,28.0,30.24,NNE,20,0.0,3.0,98,66.20,,,-99.99,,2013-03-07 06:11:00,
2013-03-07 00:21:00,28.0,28.0,30.25,NE,37,1.0,5.0,98,66.20,,,-99.99,,2013-03-07 06:21:00,
2013-03-07 00:32:00,28.0,28.0,30.25,NW,326,0.0,2.0,98,66.20,,,-99.99,,2013-03-07 06:32:00,
2013-03-07 00:41:00,28.0,28.0,30.26,NW,326,0.0,1.0,98,66.20,,,-99.99,,2013-03-07 06:41:00,
2013-03-07 00:52:00,28.0,28.0,30.26,NW,326,0.0,1.0,98,66.20,,,-99.99,,2013-03-07 06:52:00,
2013-03-07 01:01:00,28.0,28.0,30.26,North,353,1.0,4.0,98,66.20,,,-99.99,,2013-03-07 07:01:00,
2013-03-07 01:11:00,28.0,28.0,30.26,North,353,1.0,4.0,98,66.20,,,-99.99,,2013-03-07 07:11:00,
2013-03-07 01:21:00,28.0,28.0,30.26,North,353,1.0,3.0,98,66.20,,,-99.99,,2013-03-07 07:21:00,
2013-03-07 01:32:00,28.0,28.0,30.26,WNW,290,0.0,1.0,98,66.20,,,-99.99,,2013-03-07 07:32:00,
2013-03-07 01:42:00,28.0,28.0,30.26,WNW,290,0.0,1.0,98,66.20,,,-99.99,,2013-03-07 07:42:00,
2013-03-07 01:52:00,28.0,28.0,30.26,NNE,17,1.0,4.0,98,66.20,,,-99.99,,2013-03-07 07:52:00,
2013-03-07 02:02:00,28.0,28.0,30.26,NNW,342,1.0,5.0,98,66.20,,,-99.99,,2013-03-07 08:02:00,
2013-03-07 02:12:00,28.0,28.0,30.26,NNW,342,1.0,5.0,98,66.20,,,-99.99,,2013-03-07 08:12:00,
2013-03-07 02:22:00,28.0,28.0,30.27,North,0,0.0,0.0,98,66.20,,,-99.99,,2013-03-07 08:22:00,
2013-03-07 02:33:00,28.0,28.0,30.27,North,350,0.0,3.0,98,66.20,,,-99.99,,2013-03-07 08:33:00,
2013-03-07 02:43:00,28.0,28.0,30.27,North,350,0.0,3.0,98,66.20,,,-99.99,,2013-03-07 08:43:00,
2013-03-07 02:54:00,28.0,28.0,30.27,NNE,21,1.0,4.0,98,66.20,,,-99.99,,2013-03-07 08:54:00,
2013-03-07 03:03:00,28.0,28.0,30.27,North,352,0.0,1.0,98,66.20,,,-99.99,,2013-03-07 09:03:00,
2013-03-07 03:12:00,28.0,28.0,30.27,North,352,0.0,1.0,98,66.20,,,-99.99,,2013-03-07 09:12:00,
2013-03-07 03:23:00,28.0,28.0,30.27,North,359,1.0,4.0,98,66.20,,,-99.99,,2013-03-07 09:23:00,
2013-03-07 03:32:00,28.0,28.0,30.27,North,357,0.0,3.0,98,66.20,,,-99.99,,2013-03-07 09:32:00,
2013-03-07 03:42:00,28.0,28.0,30.27,North,357,0.0,3.0,98,66.20,,,-99.99,,2013-03-07 09:42:00,
2013-03-07 03:53:00,28.0,28.0,30.27,NNE,24,1.0,7.0,98,66.20,,,-99.99,,2013-03-07 09:53:00,
2013-03-07 04:02:00,28.0,28.0,30.28,North,356,1.0,4.0,98,66.20,,,-99.99,,2013-03-07 10:02:00,
2013-03-07 04:12:00,28.0,28.0,30.28,North,356,1.0,4.0,98,66.20,,,-99.99,,2013-03-07 10:12:00,
2013-03-07 04:23:00,28.0,28.0,30.28,North,0,0.0,3.0,98,66.20,,,-99.99,,2013-03-07 10:23:00,
2013-03-07 04:33:00,28.0,28.0,30.29,North,359,2.0,5.0,98,66.20,,,-99.99,,2013-03-07 10:33:00,
2013-03-07 04:42:00,28.0,28.0,30.29,North,359,2.0,5.0,98,66.20,,,-99.99,,2013-03-07 10:42:00,
2013-03-07 04:53:00,28.0,27.0,30.29,North,359,1.0,5.0,97,66.20,,,-99.99,,2013-03-07 10:53:00,
2013-03-07 05:02:00,27.0,26.0,30.29,North,11,2.0,6.0,97,66.20,,,-99.99,,2013-03-07 11:02:00,
2013-03-07 05:12:00,27.0,26.0,30.29,North,11,2.0,6.0,97,66.20,,,-99.99,,2013-03-07 11:12:00,
2013-03-07 05:23:00,28.0,27.0,30.29,North,4,1.0,5.0,97,66.20,,,-99.99,,2013-03-07 11:23:00,
2013-03-07 05:33:00,27.0,26.0,30.29,North,359,1.0,5.0,97,66.20,,,-99.99,,2013-03-07 11:33:00,
2013-03-07 05:42:00,27.0,26.0,30.29,North,359,1.0,5.0,97,66.20,,,-99.99,,2013-03-07 11:42:00,
2013-03-07 06:02:00,28.0,28.0,30.30,North,0,0.0,0.0,98,66.20,,,-99.99,,2013-03-07 12:02:00,
2013-03-07 06:12:00,28.0,28.0,30.30,North,0,0.0,0.0,98,66.20,,,-99.99,,2013-03-07 12:12:00,
2013-03-07 06:22:00,28.0,28.0,30.31,North,0,0.0,0.0,98,66.20,,,-99.99,,2013-03-07 12:22:00,
2013-03-07 06:33:00,28.0,28.0,30.31,North,0,0.0,0.0,98,66.20,,,-99.99,,2013-03-07 12:33:00,
2013-03-07 06:42:00,28.0,28.0,30.31,North,0,0.0,0.0,98,66.20,,,-99.99,,2013-03-07 12:42:00,
2013-03-07 06:53:00,28.0,27.0,30.32,North,0,0.0,0.0,97,66.20,,,-99.99,,2013-03-07 12:53:00,
2013-03-07 07:02:00,28.0,27.0,30.32,North,0,0.0,0.0,97,66.20,,,-99.99,,2013-03-07 13:02:00,
2013-03-07 07:12:00,28.0,27.0,30.32,North,0,0.0,0.0,97,66.20,,,-99.99,,2013-03-07 13:12:00,
2013-03-07 07:22:00,28.0,27.0,30.32,North,0,0.0,0.0,97,66.20,,,-99.99,,2013-03-07 13:22:00,
2013-03-07 07:32:00,28.0,27.0,30.33,North,0,0.0,0.0,97,66.20,,,-99.99,,2013-03-07 13:32:00,
2013-03-07 07:42:00,28.0,27.0,30.33,North,0,0.0,0.0,97,66.20,,,-99.99,,2013-03-07 13:42:00,
2013-03-07 07:53:00,28.0,27.0,30.34,NW,315,0.0,2.0,97,66.20,,,-99.99,,2013-03-07 13:53:00,
2013-03-07 08:02:00,29.0,28.0,30.34,North,0,0.0,0.0,97,66.20,,,-99.99,,2013-03-07 14:02:00,
2013-03-07 08:12:00,29.0,28.0,30.34,North,0,0.0,0.0,97,66.20,,,-99.99,,2013-03-07 14:12:00,
2013-03-07 08:22:00,29.0,28.0,30.34,NNE,14,1.0,3.0,96,66.20,,,-99.99,,2013-03-07 14:22:00,
2013-03-07 08:32:00,29.0,28.0,30.35,NNW,328,1.0,3.0,96,66.20,,,-99.99,,2013-03-07 14:32:00,
2013-03-07 08:42:00,29.0,28.0,30.35,NNW,328,1.0,3.0,96,66.20,,,-99.99,,2013-03-07 14:42:00,
2013-03-07 08:52:00,29.0,27.0,30.35,North,6,0.0,3.0,94,66.20,,,-99.99,,2013-03-07 14:52:00,
2013-03-07 09:02:00,30.0,29.0,30.35,North,0,0.0,0.0,95,66.20,,,-99.99,,2013-03-07 15:02:00,
2013-03-07 09:12:00,30.0,29.0,30.35,North,0,0.0,0.0,95,66.20,,,-99.99,,2013-03-07 15:12:00,
2013-03-07 09:22:00,30.0,28.0,30.35,North,7,1.0,5.0,93,66.20,,,-99.99,,2013-03-07 15:22:00,
2013-03-07 09:32:00,31.0,29.0,30.35,NNW,340,0.0,3.0,93,66.20,,,-99.99,,2013-03-07 15:32:00,
2013-03-07 09:42:00,31.0,29.0,30.35,NNW,340,0.0,3.0,93,66.20,,,-99.99,,2013-03-07 15:42:00,
2013-03-07 09:53:00,31.0,29.0,30.35,North,0,0.0,0.0,91,66.20,,,-99.99,,2013-03-07 15:53:00,
2013-03-07 10:02:00,32.0,30.0,30.34,WNW,301,0.0,2.0,92,66.23,,,-99.99,,2013-03-07 16:02:00,
2013-03-07 10:12:00,32.0,30.0,30.34,WNW,301,0.0,2.0,92,66.23,,,-99.99,,2013-03-07 16:12:00,
2013-03-07 10:23:00,32.0,29.0,30.35,North,6,1.0,4.0,88,66.24,,,-99.99,,2013-03-07 16:23:00,
2013-03-07 10:32:00,32.0,29.0,30.35,NNE,31,1.0,4.0,90,66.24,,,-99.99,,2013-03-07 16:32:00,
2013-03-07 10:42:00,32.0,29.0,30.35,NNE,31,1.0,4.0,90,66.24,,,-99.99,,2013-03-07 16:42:00,
2013-03-07 10:53:00,33.0,30.0,30.35,North,0,1.0,4.0,88,66.24,,,-99.99,,2013-03-07 16:53:00,
2013-03-07 11:02:00,33.0,30.0,30.35,NNW,347,1.0,6.0,89,66.24,,,-99.99,,2013-03-07 17:02:00,
2013-03-07 11:12:00,33.0,30.0,30.35,NNW,347,1.0,6.0,89,66.24,,,-99.99,,2013-03-07 17:12:00,
2013-03-07 11:22:00,33.0,30.0,30.35,North,350,2.0,6.0,89,66.24,,,-99.99,,2013-03-07 17:22:00,
2013-03-07 11:32:00,33.0,30.0,30.35,North,353,2.0,5.0,90,66.24,,,-99.99,,2013-03-07 17:32:00,
2013-03-07 11:43:00,33.0,30.0,30.35,North,353,2.0,5.0,90,66.24,,,-99.99,,2013-03-07 17:43:00,
2013-03-07 11:54:00,34.0,31.0,30.35,North,0,0.0,0.0,88,66.24,,,-99.99,,2013-03-07 17:54:00,
2013-03-07 12:03:00,35.0,32.0,30.34,WNW,295,1.0,5.0,88,66.24,,,-99.99,,2013-03-07 18:03:00,
2013-03-07 12:12:00,35.0,32.0,30.34,WNW,295,1.0,5.0,88,66.24,,,-99.99,,2013-03-07 18:12:00,
2013-03-07 12:22:00,34.0,31.0,30.34,WNW,297,2.0,6.0,87,66.24,,,-99.99,,2013-03-07 18:22:00,
2013-03-07 12:32:00,34.0,31.0,30.34,North,359,1.0,5.0,88,66.24,,,-99.99,,2013-03-07 18:32:00,
2013-03-07 12:42:00,34.0,31.0,30.34,North,359,1.0,5.0,88,66.24,,,-99.99,,2013-03-07 18:42:00,
2013-03-07 12:52:00,35.0,32.0,30.33,NNW,338,2.0,5.0,89,66.24,,,-99.99,,2013-03-07 18:52:00,
2013-03-07 13:12:00,34.0,31.0,30.32,West,281,3.0,5.0,87,66.24,,,-99.99,,2013-03-07 19:12:00,
2013-03-07 13:23:00,34.0,31.0,30.32,West,281,3.0,5.0,87,66.24,,,-99.99,,2013-03-07 19:23:00,
2013-03-07 13:34:00,34.0,30.0,30.32,West,277,1.0,4.0,86,66.24,,,-99.99,,2013-03-07 19:34:00,
2013-03-07 13:43:00,34.0,30.0,30.32,West,277,1.0,4.0,86,66.24,,,-99.99,,2013-03-07 19:43:00,
2013-03-07 13:53:00,35.0,31.0,30.32,WNW,293,0.0,1.0,85,66.24,,,-99.99,,2013-03-07 19:53:00,
2013-03-07 14:02:00,35.0,31.0,30.31,West,263,1.0,4.0,85,66.24,,,-99.99,,2013-03-07 20:02:00,
2013-03-07 14:13:00,35.0,31.0,30.31,West,263,1.0,4.0,85,66.24,,,-99.99,,2013-03-07 20:13:00,
2013-03-07 14:22:00,35.0,31.0,30.32,North,0,0.0,0.0,85,66.24,,,-99.99,,2013-03-07 20:22:00,
2013-03-07 14:32:00,36.0,31.0,30.31,North,354,1.0,3.0,81,66.24,,,-99.99,,2013-03-07 20:32:00,
2013-03-07 14:42:00,36.0,31.0,30.31,North,354,1.0,3.0,81,66.24,,,-99.99,,2013-03-07 20:42:00,
2013-03-07 14:54:00,36.0,29.0,30.32,SW,231,0.0,2.0,76,66.24,,,-99.99,,2013-03-07 20:54:00,
2013-03-07 15:02:00,35.0,28.0,30.32,North,359,1.0,4.0,75,66.24,,,-99.99,,2013-03-07 21:02:00,
2013-03-07 15:12:00,35.0,28.0,30.32,North,359,1.0,4.0,75,66.24,,,-99.99,,2013-03-07 21:12:00,
2013-03-07 15:22:00,35.0,29.0,30.32,WNW,284,0.0,1.0,77,66.24,,,-99.99,,2013-03-07 21:22:00,
2013-03-07 15:32:00,35.0,29.0,30.32,North,349,0.0,2.0,78,66.24,,,-99.99,,2013-03-07 21:32:00,
2013-03-07 15:42:00,35.0,29.0,30.32,North,349,0.0,2.0,78,66.24,,,-99.99,,2013-03-07 21:42:00,
2013-03-07 15:52:00,35.0,29.0,30.32,North,0,0.0,0.0,78,66.24,,,-99.99,,2013-03-07 21:52:00,
2013-03-07 16:02:00,36.0,30.0,30.32,North,0,0.0,0.0,79,66.24,,,-99.99,,2013-03-07 22:02:00,
2013-03-07 16:12:00,36.0,30.0,30.32,North,0,0.0,0.0,79,66.24,,,-99.99,,2013-03-07 22:12:00,
2013-03-07 16:22:00,35.0,29.0,30.32,North,0,0.0,0.0,78,66.24,,,-99.99,,2013-03-07 22:22:00,
2013-03-07 16:32:00,35.0,29.0,30.33,North,0,0.0,0.0,77,66.24,,,-99.99,,2013-03-07 22:32:00,
2013-03-07 16:42:00,35.0,29.0,30.33,North,0,0.0,0.0,77,66.24,,,-99.99,,2013-03-07 22:42:00,
2013-03-07 16:54:00,35.0,29.0,30.33,West,281,0.0,2.0,78,66.24,,,-99.99,,2013-03-07 22:54:00,
2013-03-07 17:02:00,35.0,29.0,30.33,WNW,284,0.0,0.0,78,66.24,,,-99.99,,2013-03-07 23:02:00,
2013-03-07 17:12:00,35.0,29.0,30.33,WNW,284,0.0,0.0,78,66.24,,,-99.99,,2013-03-07 23:12:00,
2013-03-07 17:22:00,35.0,29.0,30.33,North,0,0.0,0.0,78,66.24,,,-99.99,,2013-03-07 23:22:00,
2013-03-07 17:33:00,35.0,29.0,30.33,North,0,0.0,0.0,78,66.24,,,-99.99,,2013-03-07 23:33:00,
2013-03-07 17:53:00,35.0,29.0,30.34,North,0,0.0,0.0,80,66.24,,,-99.99,,2013-03-07 23:53:00,
2013-03-07 18:03:00,35.0,29.0,30.34,East,97,0.0,3.0,79,66.24,,,-99.99,,2013-03-08 00:03:00,
2013-03-07 18:12:00,35.0,29.0,30.34,East,97,0.0,3.0,79,66.24,,,-99.99,,2013-03-08 00:12:00,
2013-03-07 18:23:00,34.0,28.0,30.34,North,0,0.0,0.0,79,66.24,,,-99.99,,2013-03-08 00:23:00,
2013-03-07 18:33:00,34.0,29.0,30.35,North,0,0.0,0.0,81,66.24,,,-99.99,,2013-03-08 00:33:00,
2013-03-07 18:43:00,34.0,29.0,30.35,North,0,0.0,0.0,81,66.24,,,-99.99,,2013-03-08 00:43:00,
2013-03-07 18:53:00,34.0,28.0,30.35,North,0,0.0,0.0,80,66.24,,,-99.99,,2013-03-08 00:53:00,
2013-03-07 19:02:00,34.0,29.0,30.35,North,0,0.0,0.0,83,66.24,,,-99.99,,2013-03-08 01:02:00,
2013-03-07 19:11:00,34.0,29.0,30.35,North,0,0.0,0.0,83,66.24,,,-99.99,,2013-03-08 01:11:00,
2013-03-07 19:21:00,34.0,29.0,30.35,North,0,0.0,0.0,83,66.24,,,-99.99,,2013-03-08 01:21:00,
2013-03-07 19:32:00,33.0,28.0,30.35,SE,125,0.0,1.0,83,66.24,,,-99.99,,2013-03-08 01:32:00,
2013-03-07 19:42:00,33.0,28.0,30.35,SE,125,0.0,1.0,83,66.24,,,-99.99,,2013-03-08 01:42:00,
2013-03-07 19:52:00,32.0,28.0,30.35,North,0,0.0,0.0,85,66.24,,,-99.99,,2013-03-08 01:52:00,
2013-03-07 20:01:00,32.0,28.0,30.35,North,0,0.0,0.0,85,66.24,,,-99.99,,2013-03-08 02:01:00,
2013-03-07 20:11:00,31.0,27.0,30.35,North,0,0.0,0.0,86,66.24,,,-99.99,,2013-03-08 02:11:00,
2013-03-07 20:21:00,31.0,27.0,30.35,North,0,0.0,0.0,86,66.24,,,-99.99,,2013-03-08 02:21:00,
2013-03-07 20:31:00,31.0,28.0,30.35,North,0,0.0,0.0,90,66.24,,,-99.99,,2013-03-08 02:31:00,
2013-03-07 20:42:00,31.0,28.0,30.35,North,0,0.0,0.0,90,66.24,,,-99.99,,2013-03-08 02:42:00,
2013-03-07 20:53:00,31.0,28.0,30.36,North,0,0.0,0.0,89,66.24,,,-99.99,,2013-03-08 02:53:00,
2013-03-07 21:02:00,31.0,28.0,30.35,North,0,0.0,0.0,89,66.24,,,-99.99,,2013-03-08 03:02:00,
2013-03-07 21:11:00,31.0,28.0,30.35,North,0,0.0,0.0,89,66.24,,,-99.99,,2013-03-08 03:11:00,
2013-03-07 21:22:00,30.0,27.0,30.35,North,0,0.0,0.0,90,66.24,,,-99.99,,2013-03-08 03:22:00,
2013-03-07 21:32:00,30.0,28.0,30.35,North,0,0.0,0.0,91,66.24,,,-99.99,,2013-03-08 03:32:00,
2013-03-07 21:42:00,30.0,28.0,30.35,North,0,0.0,0.0,91,66.24,,,-99.99,,2013-03-08 03:42:00,
2013-03-07 21:52:00,30.0,28.0,30.35,North,0,0.0,0.0,92,66.24,,,-99.99,,2013-03-08 03:52:00,
2013-03-07 22:01:00,30.0,28.0,30.35,North,0,0.0,0.0,93,66.24,,,-99.99,,2013-03-08 04:01:00,
2013-03-07 22:11:00,29.0,27.0,30.35,North,0,0.0,0.0,93,66.24,,,-99.99,,2013-03-08 04:11:00,
2013-03-07 22:21:00,29.0,27.0,30.35,North,0,0.0,0.0,93,66.24,,,-99.99,,2013-03-08 04:21:00,
2013-03-07 22:32:00,29.0,27.0,30.35,North,0,0.0,0.0,93,66.24,,,-99.99,,2013-03-08 04:32:00,
2013-03-07 22:42:00,29.0,27.0,30.35,North,0,0.0,0.0,93,66.24,,,-99.99,,2013-03-08 04:42:00,
2013-03-07 22:52:00,28.0,27.0,30.35,North,0,0.0,0.0,94,66.24,,,-99.99,,2013-03-08 04:52:00,
2013-03-07 23:02:00,28.0,27.0,30.35,North,0,0.0,0.0,95,66.24,,,-99.99,,2013-03-08 05:02:00,
2013-03-07 23:12:00,28.0,27.0,30.35,North,0,0.0,0.0,95,66.24,,,-99.99,,2013-03-08 05:12:00,
2013-03-07 23:22:00,27.0,26.0,30.35,North,0,0.0,0.0,96,66.24,,,-99.99,,2013-03-08 05:22:00,
2013-03-07 23:32:00,27.0,26.0,30.35,North,0,0.0,0.0,96,66.24,,,-99.99,,2013-03-08 05:32:00,
2013-03-07 23:42:00,27.0,26.0,30.35,North,0,0.0,0.0,96,66.24,,,-99.99,,2013-03-08 05:42:00,
2013-03-07 23:52:00,27.0,26.0,30.35,North,0,0.0,0.0,97,66.24,,,-99.99,,2013-03-08 05:52:00,